Location: Godiavel Galaoual
(15.2485°N, 12.6604°W)
Time: 13:27:34
(UTC+00:00)

LightSail 2 - Pass Details

Date: 13 June 2020
Orbit: 691 x 722 km, 24.0° (Epoch: 06 July)

Event Time Altitude Azimuth Distance (km) Brightness Sun altitude
Rises 19:58:10 0° 270° (W) 3,055 9.7 -8.8°
Reaches altitude 10° 20:00:42 10° 277° (W) 2,135 8.9 -9.3°
Maximum altitude 20:05:28 42° 347° (NNW) 979 6.2 -10.3°
Drops below altitude 10° 20:10:12 10° 59° (ENE) 2,127 7.3 -11.3°
Enters shadow 20:12:25 - 65° (ENE) 2,926 8.0 -11.8°
